TimeEDT,TemperatureF,Dew PointF,Humidity,Sea Level PressureIn,VisibilityMPH,Wind Direction,Wind SpeedMPH,Gust SpeedMPH,PrecipitationIn,Events,Conditions,WindDirDegrees,DateUTC
12:51 AM,41.0,33.1,73,30.07,10.0,SSE,6.9,-,N/A,,Clear,150,2014-03-19 04:51:00
1:51 AM,42.1,33.1,70,30.06,10.0,SSE,10.4,-,N/A,,Clear,150,2014-03-19 05:51:00
2:51 AM,44.1,34.0,68,30.05,10.0,SSE,16.1,23.0,N/A,,Clear,160,2014-03-19 06:51:00
3:51 AM,43.0,34.0,71,30.04,10.0,South,11.5,24.2,N/A,,Clear,170,2014-03-19 07:51:00
4:51 AM,44.1,35.1,71,30.02,10.0,SSE,17.3,25.3,N/A,,Clear,160,2014-03-19 08:51:00
5:51 AM,45.0,36.0,71,30.03,10.0,South,9.2,-,N/A,,Clear,170,2014-03-19 09:51:00
6:51 AM,45.0,37.9,76,30.03,10.0,SSE,11.5,-,N/A,,Clear,150,2014-03-19 10:51:00
7:51 AM,46.0,37.9,73,30.04,10.0,SSE,10.4,-,N/A,,Clear,160,2014-03-19 11:51:00
8:51 AM,46.9,39.0,74,30.03,10.0,SSE,8.1,-,N/A,,Clear,160,2014-03-19 12:51:00
9:51 AM,51.1,39.9,66,30.02,10.0,SSW,12.7,-,N/A,,Clear,200,2014-03-19 13:51:00
10:51 AM,55.0,39.9,57,30.00,10.0,SSW,11.5,-,N/A,,Clear,200,2014-03-19 14:51:00
11:51 AM,57.0,39.9,53,29.97,10.0,South,12.7,-,N/A,,Clear,190,2014-03-19 15:51:00
12:51 PM,59.0,39.9,49,29.94,10.0,SSW,12.7,24.2,N/A,,Clear,200,2014-03-19 16:51:00
1:51 PM,59.0,41.0,51,29.90,10.0,South,11.5,19.6,N/A,,Clear,180,2014-03-19 17:51:00
2:51 PM,57.0,39.0,51,29.84,10.0,SSE,21.9,27.6,N/A,,Clear,150,2014-03-19 18:51:00
3:51 PM,57.0,39.0,51,29.83,10.0,SSE,15.0,26.5,N/A,,Partly Cloudy,150,2014-03-19 19:51:00
4:51 PM,60.1,39.9,47,29.80,10.0,SSW,9.2,24.2,N/A,,Partly Cloudy,200,2014-03-19 20:51:00
5:51 PM,60.1,39.9,47,29.78,10.0,South,6.9,-,N/A,,Scattered Clouds,180,2014-03-19 21:51:00
6:51 PM,57.9,41.0,53,29.80,10.0,West,9.2,-,0.00,,Scattered Clouds,280,2014-03-19 22:51:00
7:51 PM,55.0,42.1,62,29.83,10.0,NW,10.4,18.4,0.00,Rain,Light Rain,310,2014-03-19 23:51:00
8:51 PM,50.0,45.0,83,29.86,10.0,North,-9999.0,-,0.05,,Mostly Cloudy,0,2014-03-20 00:51:00
9:51 PM,51.1,39.9,66,29.86,10.0,SW,3.5,-,0.00,,Overcast,230,2014-03-20 01:51:00
10:51 PM,48.0,39.9,74,29.88,10.0,West,16.1,26.5,0.05,Rain,Light Rain,280,2014-03-20 02:51:00
11:11 PM,48.0,41.0,77,29.87,10.0,WNW,12.7,20.7,0.01,Rain,Light Rain,290,2014-03-20 03:11:00
11:51 PM,46.9,39.9,77,29.90,10.0,West,12.7,20.7,0.01,Rain,Light Rain,270,2014-03-20 03:51:00